Location: Southwest Harbor
(44.2798°N, 68.3250°W)
Time: 22:22:37
(UTC-04:00)

ISS - Visible Passes

Search period start: 24 June 2019 00:00
Search period end: 04 July 2019 00:00
Orbit: 407 x 418 km, 51.6° (Epoch: 25 June)

Date Brightness Start Highest point End Pass type
(mag) Time Alt. Az. Time Alt. Az. Time Alt. Az.
30 Jun -1.6 03:38:59 10° S 03:41:11 17° SE 03:43:23 10° E visible
02 Jul -3.0 03:36:14 17° SSW 03:38:23 40° SE 03:41:31 10° ENE visible
03 Jul -2.3 02:48:26 23° SSE 02:48:53 24° SE 02:51:37 10° E visible
